Location: Newark
(46.7000°N, 60.6000°W)
Time: 20:44:16
(UTC+00:00)

N. Korean satellite - Pass Details

Date: 23 September 2020
Orbit: 452 x 505 km, 97.2° (Epoch: 28 October)

Event Time Altitude Azimuth Distance (km) Brightness Sun altitude
Rises 09:18:30 0° 18° (NNE) 2,607 10.6 -6.4°
Reaches altitude 10° 09:20:40 10° 24° (NNE) 1,711 9.8 -6.1°
Maximum altitude 09:24:14 45° 99° (E) 681 8.0 -5.4°
Drops below altitude 10° 09:27:41 10° 173° (S) 1,670 9.3 -4.9°
Sets 09:29:47 0° 180° (S) 2,535 10.2 -4.5°
